Voltar ao catálogo

STARLINK-3200

AtivoComunicaçõesVLEO
NORAD 49753·PAYLOAD·🇺🇸 United States

Lançado Dec 2, 2021 de Cape Canaveral Space Force Station

Loading…

Próximas Passagens (próximas 24 horas)

TLE

AtualizadoSource: CelesTrak SupGP

Época: Sep 14, 2026, 20:48 UTC

1 49753C 21115AF  26257.86715278 -.00009114  00000+0 -26934-3 0  2574
2 49753  53.1601   8.0838 0001249  78.9308  49.5756 15.34386808    17

Acompanhe STARLINK-3200 em tempo real com AllMySat

Download on the App Store